Location: Grust
(42.8833°N, 0.0333°W)
Time: 14:21:01
(UTC+00:00)

Cosmos 1656 - Pass Details

Date: 25 October 2020
Orbit: 796 x 851 km, 71.1° (Epoch: 24 November)

Event Time Altitude Azimuth Distance (km) Brightness Sun altitude
Rises 17:53:13 0° 177° (S) 3,322 6.9 -10.1°
Reaches altitude 10° 17:55:47 10° 168° (SSE) 2,404 6.0 -10.5°
Maximum altitude 18:00:44 35° 105° (ESE) 1,313 4.2 -11.4°
Drops below altitude 10° 18:05:45 10° 41° (NE) 2,452 5.7 -12.4°
Enters shadow 18:07:26 - 35° (NE) 3,050 6.2 -12.7°
